Rockingham, NC

10:33 PM EST on February 21, 2018 (GMT -0500)
Rockingham

Weather History for KRCZ - March, 2013

Change the Weather History Date:

Sunday, March 24, 2013

  Actual Average (KHFF) Record (KHFF)
Temperature  
Mean Temperature 40 °F -  
Max Temperature 42 °F 63 °F 80 °F (1999)
Min Temperature 39 °F 42 °F 30 °F (2014)
Degree Days  
Heating Degree Days 24    
Moisture  
Dew Point 40 °F    
Average Humidity 96    
Maximum Humidity 99    
Minimum Humidity 86    
Precipitation  
Precipitation 0.70 in - - ()
Sea Level Pressure  
Sea Level Pressure 29.69 in    
Wind  
Wind Speed 5 mph (NE)    
Max Wind Speed 14 mph    
Max Gust Speed 23 mph    
Visibility 6 miles    
Events Rain    
Averages and records for this station are not official NWS values.
T = Trace of Precipitation, MM = Missing Value Source: NWS Daily Summary

Daily Weather History Graph

Daily Weather History Graph

Search for Another Location

Airport or City:

Trip Planner

Search our weather history database for the weather conditions in past years. The results will help you decide how hot, cold, wet, or windy it might be!

Date:

Astronomy

Mar. 24, 2013 Rise Set
Actual Time 7:16 AM EDT 7:34 PM EDT
Civil Twilight 6:51 AM EDT 7:59 PM EDT
Nautical Twilight 6:21 AM EDT 8:29 PM EDT
Astronomical Twilight 5:51 AM EDT 8:59 PM EDT
Moon 5:05 PM EDT (3/24) 5:20 AM EDT (3/24)
Length of Visible Light 13h 07m
Length of Day
12h 17m
Waxing Gibbous, 91% of the Moon is Illuminated
Mar 24
Waxing Gibbous
Mar 27
Full
Apr 3
Last Quarter
Apr 10
New
Apr 18
First Quarter

Hourly Weather History & Observations

Time (EDT) Temp. Windchill Dew Point Humidity Pressure Visibility Wind Dir Wind Speed Gust Speed Precip Events Conditions
12:15 AM 40.6 °F 38.6 °F 39.6 °F 96% 29.91 in 10.0 mi NE 3.5 mph - N/A   Clear
12:35 AM 40.3 °F 37.1 °F 39.0 °F 95% 29.89 in 10.0 mi NE 4.6 mph - N/A   Clear
12:55 AM 39.6 °F 37.4 °F 38.3 °F 95% 29.89 in 7.0 mi NE 3.5 mph - N/A   Clear
1:15 AM 39.6 °F 37.4 °F 38.5 °F 96% 29.87 in 10.0 mi ENE 3.5 mph - N/A   Clear
1:35 AM 39.4 °F - 38.5 °F 97% 29.88 in 10.0 mi Calm Calm - N/A   Clear
1:55 AM 41.5 °F - 39.2 °F 91% 29.89 in 10.0 mi Calm Calm - N/A   Clear
2:15 AM 40.6 °F - 39.2 °F 95% 29.88 in 7.0 mi Calm Calm - N/A   Scattered Clouds
2:35 AM 41.5 °F - 39.9 °F 94% 29.90 in 10.0 mi Calm Calm - N/A   Scattered Clouds
2:55 AM 42.1 °F - 39.9 °F 92% 29.91 in 10.0 mi Calm Calm - N/A   Overcast
3:35 AM 41.2 °F 37.3 °F 39.2 °F 93% 29.88 in 10.0 mi NE 5.8 mph - N/A   Overcast
3:55 AM 41.4 °F 39.4 °F 39.0 °F 91% 29.86 in 10.0 mi NE 3.5 mph - N/A   Overcast
4:15 AM 42.4 °F - 38.7 °F 86% 29.87 in 10.0 mi Calm Calm - N/A   Overcast
4:35 AM 42.1 °F 40.2 °F 38.7 °F 88% 29.85 in 7.0 mi NE 3.5 mph - N/A Rain Light Rain
4:55 AM 41.5 °F 38.6 °F 39.2 °F 91% 29.81 in 7.0 mi NE 4.6 mph - 0.02 in Rain Light Rain
5:15 AM 41.9 °F 37.5 °F 39.4 °F 91% 29.80 in 7.0 mi NE 6.9 mph - 0.01 in Rain Light Rain
5:35 AM 41.7 °F 37.3 °F 39.4 °F 91% 29.79 in 5.0 mi NE 6.9 mph - 0.05 in Rain Rain
5:55 AM 41.4 °F 39.4 °F 39.7 °F 94% 29.81 in 4.0 mi ENE 3.5 mph - 0.11 in Rain Rain
6:15 AM 41.4 °F 36.8 °F 40.1 °F 95% 29.81 in 3.0 mi NE 6.9 mph - 0.07 in Rain Heavy Rain
6:35 AM 41.4 °F 36.8 °F 40.5 °F 97% 29.80 in 4.0 mi NE 6.9 mph - 0.13 in Rain Rain
6:55 AM 41.5 °F 37.8 °F 40.6 °F 97% 29.80 in 5.0 mi NE 5.8 mph - 0.17 in Rain Light Rain
7:15 AM 41.9 °F 37.5 °F 40.6 °F 95% 29.79 in 5.0 mi East 6.9 mph - 0.02 in Rain Light Rain
7:35 AM 41.9 °F 37.5 °F 40.8 °F 96% 29.78 in 5.0 mi ENE 6.9 mph - 0.02 in Rain Light Rain
7:55 AM 42.1 °F 37.7 °F 41.0 °F 96% 29.78 in 5.0 mi East 6.9 mph - 0.03 in   Light Drizzle
8:15 AM 42.1 °F 36.1 °F 40.6 °F 95% 29.74 in 5.0 mi East 10.4 mph 17.3 mph N/A Rain Light Rain
8:35 AM 41.9 °F 38.2 °F 40.5 °F 95% 29.76 in 5.0 mi NE 5.8 mph - N/A Rain Light Rain
8:55 AM 41.5 °F 35.0 °F 40.3 °F 95% 29.71 in 4.0 mi East 11.5 mph 20.7 mph 0.03 in Rain Rain
9:15 AM 41.9 °F 34.6 °F 40.6 °F 95% 29.66 in 4.0 mi East 13.8 mph 23.0 mph N/A Rain Light Rain
9:35 AM 42.1 °F 35.7 °F 40.5 °F 94% 29.66 in 7.0 mi East 11.5 mph 21.9 mph N/A   Overcast
9:55 AM 42.4 °F 38.8 °F 41.0 °F 95% 29.67 in 7.0 mi ENE 5.8 mph 19.6 mph N/A   Overcast
10:15 AM 42.4 °F 37.0 °F 41.0 °F 95% 29.65 in 5.0 mi ENE 9.2 mph - 0.02 in Rain Rain
10:35 AM 42.4 °F 36.1 °F 41.4 °F 96% 29.67 in 7.0 mi North 11.5 mph 16.1 mph 0.03 in Rain Light Rain
10:55 AM 41.9 °F 36.9 °F 41.0 °F 97% 29.70 in 3.0 mi North 8.1 mph - 0.06 in Rain Heavy Rain
11:15 AM 41.9 °F 38.2 °F 41.2 °F 97% 29.67 in 2.5 mi NNE 5.8 mph - 0.07 in Rain Rain
11:35 AM 41.9 °F 34.6 °F 41.2 °F 97% 29.63 in 3.0 mi NE 13.8 mph 18.4 mph 0.11 in Rain Light Rain
11:55 AM 41.4 °F 36.2 °F 41.0 °F 99% 29.62 in 4.0 mi NE 8.1 mph 18.4 mph 0.14 in Rain Rain
12:15 PM 41.2 °F 37.3 °F 40.6 °F 98% 29.62 in 5.0 mi NE 5.8 mph - 0.02 in Rain Rain
12:35 PM 41.4 °F 38.4 °F 41.0 °F 99% 29.61 in 4.0 mi ENE 4.6 mph - 0.04 in Rain Rain
12:55 PM 41.4 °F 37.6 °F 41.0 °F 99% 29.61 in 4.0 mi NNE 5.8 mph - 0.06 in   Drizzle
1:15 PM 41.5 °F 37.8 °F 41.0 °F 98% 29.60 in 4.0 mi NNE 5.8 mph - N/A   Drizzle
1:35 PM 41.4 °F 36.2 °F 41.0 °F 99% 29.60 in 4.0 mi North 8.1 mph - 0.01 in   Drizzle
1:55 PM 41.4 °F 38.4 °F 41.0 °F 99% 29.60 in 3.0 mi NNE 4.6 mph - 0.02 in   Drizzle
2:15 PM 41.5 °F 38.6 °F 41.2 °F 99% 29.57 in 2.5 mi North 4.6 mph - 0.01 in Rain Light Rain
2:35 PM 41.4 °F 37.6 °F 41.0 °F 99% 29.58 in 3.0 mi North 5.8 mph - 0.02 in   Light Drizzle
2:55 PM 41.2 °F 35.5 °F 41.0 °F 99% 29.59 in 3.0 mi North 9.2 mph - 0.03 in Rain Light Rain
3:15 PM 41.2 °F 35.5 °F 41.0 °F 99% 29.57 in 3.0 mi North 9.2 mph - 0.02 in Rain Rain
3:35 PM 41.2 °F 36.0 °F 41.0 °F 99% 29.56 in 4.0 mi North 8.1 mph - 0.02 in   Drizzle
3:55 PM 41.2 °F 35.5 °F 41.0 °F 99% 29.56 in 4.0 mi North 9.2 mph - 0.02 in   Overcast
4:15 PM 41.2 °F 35.5 °F 40.8 °F 99% 29.56 in 3.0 mi North 9.2 mph - 0.01 in   Overcast
4:35 PM 41.5 °F 36.4 °F 41.0 °F 98% 29.57 in 4.0 mi North 8.1 mph - 0.01 in   Overcast
4:55 PM 41.4 °F 36.8 °F 41.0 °F 99% 29.56 in 3.0 mi North 6.9 mph - 0.01 in   Overcast
5:15 PM 41.4 °F 35.2 °F 41.0 °F 99% 29.56 in 3.0 mi North 10.4 mph 17.3 mph N/A   Overcast
5:35 PM 41.2 °F 35.0 °F 40.5 °F 97% 29.55 in 4.0 mi NNE 10.4 mph 18.4 mph N/A   Overcast
5:55 PM 41.2 °F 35.5 °F 40.3 °F 97% 29.55 in 10.0 mi NNE 9.2 mph 16.1 mph N/A   Overcast
6:15 PM 41.2 °F 36.0 °F 40.1 °F 96% 29.55 in 10.0 mi NNE 8.1 mph 18.4 mph N/A   Overcast
6:35 PM 41.2 °F 37.3 °F 39.6 °F 94% 29.57 in 10.0 mi NNE 5.8 mph 16.1 mph N/A   Overcast
6:55 PM 41.2 °F 36.6 °F 39.6 °F 94% 29.58 in 10.0 mi NNE 6.9 mph - N/A   Overcast
7:15 PM 41.2 °F 38.2 °F 39.6 °F 94% 29.59 in 10.0 mi NE 4.6 mph - N/A   Overcast
7:35 PM 41.0 °F 38.0 °F 39.2 °F 93% 29.60 in 10.0 mi NE 4.6 mph - N/A   Overcast
7:55 PM 40.5 °F - 39.2 °F 95% 29.60 in 5.0 mi Calm Calm - N/A   Overcast
8:15 PM 40.3 °F - 39.4 °F 97% 29.60 in 5.0 mi Calm Calm - N/A   Overcast
8:35 PM 40.1 °F 36.9 °F 39.6 °F 98% 29.59 in 5.0 mi NE 4.6 mph - N/A   Overcast
8:55 PM 39.7 °F 37.6 °F 39.4 °F 99% 29.60 in 7.0 mi NE 3.5 mph - N/A   Overcast
9:15 PM 40.1 °F 38.0 °F 39.6 °F 98% 29.64 in 7.0 mi NNW 3.5 mph - N/A   Overcast
9:35 PM 40.1 °F 38.0 °F 39.4 °F 97% 29.65 in 4.0 mi NNW 3.5 mph - N/A   Overcast
9:55 PM 39.9 °F - 39.4 °F 98% 29.64 in 4.0 mi Calm Calm - N/A   Overcast
10:15 PM 39.6 °F - 39.4 °F 99% 29.62 in 4.0 mi Calm Calm - N/A   Overcast
10:35 PM 39.4 °F - 39.2 °F 99% 29.61 in 5.0 mi Calm Calm - N/A   Overcast
10:55 PM 39.4 °F - 39.2 °F 99% 29.60 in 10.0 mi Calm Calm - N/A   Overcast
11:15 PM 39.4 °F - 39.2 °F 99% 29.60 in 10.0 mi Calm Calm - N/A   Overcast
11:35 PM 39.6 °F 37.4 °F 39.2 °F 99% 29.60 in 10.0 mi East 3.5 mph - N/A   Overcast
11:55 PM 39.4 °F 37.2 °F 39.0 °F 99% 29.60 in 7.0 mi East 3.5 mph - N/A Rain Light Rain